Simultaneous Nadir Overpasses (SNOs) Predictions

Prediction of SNOs between GOES-17 and METOP-B Satellite Orbit:

Table of predicted SNOs for the next 14.0 days since TLE Epoch: 9/17/2022
Index Date Time (GOES-17) GOES-17 Lat,Lon METOP-B Lat,Lon Distance(km) Time Diff (sec)
1 09/17/2022 18:52:50 -0.05,-137.30 0.76,-140.97 418.65 80
2 09/18/2022 18:34:51 -0.05,-137.29 -0.34,-135.98 149.27 80
3 09/20/2022 06:51:14 0.05,-137.26 -0.68,-140.58 377.67 80
4 09/21/2022 06:33:15 0.05,-137.25 0.42,-135.58 189.88 80
5 09/22/2022 18:49:29 -0.05,-137.24 0.58,-140.15 331.43 80
6 09/23/2022 18:31:30 -0.05,-137.22 -0.53,-135.16 235.93 80
7 09/25/2022 06:47:51 0.05,-137.19 -0.54,-139.75 291.74 80
8 09/26/2022 06:29:53 0.05,-137.17 0.56,-134.75 275.28 80
9 09/27/2022 18:46:06 -0.05,-137.15 0.43,-139.32 246.99 80
10 09/28/2022 18:28:08 -0.04,-137.13 -0.68,-134.33 319.55 80
11 09/30/2022 06:44:29 0.04,-137.08 -0.39,-138.92 209.54 80
